Wetbulb
46.50 45.08 44.77 45.62 44.39 43.52 42.39 41.18 37.02 30.93 31.97 35.84 36.90 39.71 38.70 38.74 40.21 41.01 36.94 42.09 41.90 41.97 41.62 41.38 40.40 40.62 40.15 39.06 38.73 38.41 38.56 38.22 38.43 38.75 38.94 39.59 40.00 40.22
45.82 44.55 44.60 44.39 44.73 44.99 43.88 41.55 40.18 35.52 31.81 34.74 35.51 36.07 37.19 39.57 39.58 38.27 36.78 41.53 42.35 41.36 40.40 40.27 40.77 40.92 39.85 38.62 38.24 37.91 37.81 37.81 37.91 37.93 37.85 38.30 38.88 39.33
44.60 44.13 44.22 44.85 44.36 44.13 43.12 41.76 39.18 38.13 35.17 34.25 34.74 35.84 34.43 35.36 36.53 36.82 37.06 36.86 36.38 41.13 40.53 40.66 40.07 39.99 39.81 39.13 38.01 37.56 37.28 37.31 37.53 37.43 37.62 37.40 38.17 38.58
43.63 43.63 43.49 44.88 43.37 41.60 40.54 39.73 37.36 36.88 36.47 34.26 32.90 33.82 34.32 34.88 34.71 33.36 36.62 37.97 35.40 38.94 40.65 40.06 39.62 39.14 38.58 38.17 37.56 37.57 37.02 37.07 37.01 36.87 36.98 37.04 37.50 38.00
43.32 43.36 42.95 42.65 39.99 39.18 38.34 37.17 36.91 40.14 39.03 36.69 36.74 33.82 35.42 33.76 33.90 33.23 32.85 32.90 34.93 38.82 39.50 39.04 39.28 39.25 39.28 38.27 38.03 37.68 37.78 37.69 37.38 37.23 36.70 36.26 36.39 36.69
43.39 42.94 42.90 42.49 41.27 38.50 38.43 37.44 37.88 38.19 38.18 36.53 36.97 36.93 34.26 35.49 34.60 34.17 32.59 31.12 32.16 35.57 37.02 34.88 35.89 37.28 38.52 38.66 38.44 38.64 38.23 38.10 38.10 37.85 37.32 36.11 35.86 36.34
41.92 42.77 42.25 41.51 40.71 39.96 39.83 38.60 35.77 34.78 34.81 34.55 34.23 33.52 31.97 30.41 30.83 33.19 31.12 32.95 29.33 30.77 27.93 27.96 28.20 28.29 28.90 33.58 34.89 36.73 36.71 36.76 37.20 37.76 37.35 36.86 35.96 35.71
40.45 40.45 40.87 39.86 39.62 38.65 38.59 38.41 37.82 36.56 34.74 34.03 33.82 33.10 33.79 31.84 33.53 31.82 31.01 30.13 27.90 28.84 26.74 25.64 28.40 26.49 27.89 28.21 33.42 35.36 36.21 35.70 35.94 35.78 35.98 35.95 35.55 35.17
39.34 39.02 39.56 40.19 38.12 36.54 34.75 34.41 33.90 35.21 34.94 32.57 31.78 32.80 33.99 34.62 32.40 31.70 31.38 31.75 31.07 30.27 29.18 27.15 26.06 24.78 27.28 31.72 34.98 36.05 35.45 35.28 35.45 34.99 35.32 35.29 34.93 34.81
39.23 38.13 34.71 33.09 33.34 33.20 30.90 29.25 29.94 31.25 32.42 33.64 32.67 33.23 33.79 34.71 34.86 35.08 34.10 34.32 33.35 31.09 28.67 26.39 23.85 23.95 26.29 27.21 32.98 35.19 34.85 34.89 34.78 34.91 34.96 34.75 34.62 34.84
33.92 32.51 31.94 30.81 33.92 32.77 28.50 26.58 25.65 25.41 29.61 31.54 32.06 32.64 33.83 34.15 34.37 34.08 31.97 30.94 29.87 27.64 27.63 25.60 23.49 23.38 24.30 24.29 26.11 32.86 33.63 33.37 33.56 33.54 33.97 33.93 34.04 34.48
27.92 29.63 31.21 30.51 31.71 31.37 26.89 25.02 23.74 24.48 25.86 26.90 28.12 29.03 30.96 31.09 33.97 33.64 32.63 31.27 29.89 26.42 27.50 25.95 24.75 22.74 19.69 23.04 24.42 25.41 24.85 29.64 31.75 32.78 33.03 33.75 34.46 32.16
25.86 25.38 25.70 29.29 28.99 28.76 28.86 26.03 26.00 28.17 28.57 28.64 28.43 28.54 28.85 29.24 30.66 32.05 31.78 31.95 30.40 27.39 29.19 29.15 24.90 21.91 20.63 21.01 22.34 24.80 24.39 24.61 24.86 27.76 30.71 32.06 33.40 33.84
24.58 24.62 24.77 26.91 27.52 28.48 28.23 29.39 28.28 26.51 26.68 27.48 27.81 27.85 27.67 28.27 29.25 32.58 31.02 31.41 32.74 31.48 31.35 30.25 25.61 22.81 20.54 19.79 19.42 22.85 21.85 23.70 23.93 25.28 26.02 29.39 31.35 31.46
24.38 24.21 25.06 25.98 26.77 26.15 27.46 26.62 24.55 23.81 22.31 21.52 22.09 23.49 24.49 26.73 30.02 31.07 33.77 32.43 31.55 31.44 32.06 30.67 25.96 26.54 24.32 21.85 19.75 21.80 20.84 22.53 23.70 21.43 22.93 20.94 26.60 30.52
22.77 21.50 21.77 23.65 22.96 22.82 23.45 23.59 23.01 22.34 20.54 20.04 19.83 20.34 22.99 24.06 26.02 32.07 31.93 31.39 28.09 27.06 30.31 30.92 28.39 26.90 24.58 23.40 23.19 21.27 21.71 21.73 23.19 22.33 23.81 21.80 29.81 29.13
17.74 16.58 19.34 20.54 20.64 20.88 20.88 20.91 20.06 19.35 18.24 19.50 18.94 18.44 19.27 21.31 23.87 30.85 32.22 31.66 28.34 27.37 27.46 28.59 28.36 27.93 26.51 26.10 21.11 22.41 23.14 22.30 22.99 23.84 22.65 22.36 29.18 28.54
18.56 15.11 12.48 10.65 15.48 17.79 17.26 16.97 16.66 15.99 17.24 18.09 17.38 17.33 17.11 20.16 20.35 30.70 30.56 29.24 27.16 25.17 25.25 24.49 24.08 24.40 24.67 25.97 27.92 23.36 21.25 21.66 21.88 23.91 23.82 22.76 26.96 28.54
15.65 15.09 9.38 8.67 11.84 16.67 16.32 15.25 14.07 15.58 17.33 16.21 15.79 15.59 16.69 18.50 17.76 22.73 29.33 28.36 26.77 23.84 23.17 23.95 24.72 21.48 19.09 15.18 22.52 29.09 21.68 21.16 21.51 20.65 22.14 25.12 25.85 27.18
18.69 16.27 12.24 11.89 14.07 14.84 14.18 13.44 13.53 13.30 13.68 13.37 13.60 14.87 15.09 15.65 15.77 15.93 28.30 27.64 26.68 25.48 25.28 25.40 24.54 23.93 20.97 16.45 12.97 17.53 29.34 20.92 17.96 17.08 19.67 26.39 30.00 30.47
16.86 15.67 12.34 11.70 13.64 13.27 6.28 4.52 2.56 9.90 10.29 9.57 12.03 13.70 13.90 14.33 13.60 15.48 25.33 25.97 23.94 26.66 25.22 24.55 25.83 25.15 24.88 20.44 10.78 11.96 17.44 29.97 24.89 20.76 19.53 23.47 24.96 23.92
13.60 13.82 13.31 11.78 7.11 7.63 1.69 0.44 6.53 8.65 8.99 9.75 10.93 10.81 12.68 13.65 13.25 14.04 15.54 24.06 25.33 24.99 25.19 26.89 25.29 24.80 23.14 20.84 15.62 7.21 17.46 22.04 27.89 28.83 28.42 26.40 20.45 17.28
8.36 10.12 6.02 1.45 0.73 1.52 9.96 4.74 7.37 7.64 8.09 9.68 8.74 9.88 12.02 11.37 13.13 14.20 14.41 18.04 27.30 26.15 26.56 26.46 24.52 24.98 23.34 22.47 18.31 14.72 18.98 20.19 25.05 24.19 22.77 27.38 28.02 27.91
MSLP
1022.61 1022.96 1023.13 1023.47 1023.72 1023.88 1024.18 1024.45 1025.08 1025.30 1025.03 1024.62 1024.44 1024.09 1024.07 1023.98 1023.92 1024.09 1024.28 1024.45 1024.66 1024.85 1025.02 1025.12 1025.15 1025.14 1025.10 1025.25 1025.36 1025.43 1025.31 1025.10 1024.88 1024.66 1024.30 1023.87 1023.34 1023.11
1022.84 1023.19 1023.32 1023.68 1023.59 1023.77 1024.28 1024.71 1024.75 1024.80 1024.75 1024.69 1024.38 1024.06 1023.71 1023.45 1023.41 1023.50 1023.57 1023.61 1023.77 1023.91 1024.05 1024.18 1024.21 1024.15 1024.23 1024.35 1024.53 1024.66 1024.52 1024.31 1024.15 1024.02 1023.81 1023.44 1022.96 1022.74
1022.53 1023.27 1023.73 1023.88 1024.08 1024.19 1024.55 1024.55 1024.48 1024.35 1024.54 1024.16 1023.80 1023.39 1023.25 1023.20 1022.97 1023.00 1022.89 1022.87 1022.81 1022.78 1022.91 1023.03 1023.14 1023.30 1023.40 1023.55 1023.71 1023.72 1023.63 1023.48 1023.32 1023.25 1023.17 1022.99 1022.59 1022.12
1023.23 1023.21 1023.67 1023.58 1023.95 1024.35 1024.33 1024.23 1024.06 1023.97 1024.08 1023.65 1023.47 1023.15 1022.82 1022.49 1022.27 1022.44 1022.15 1021.78 1021.85 1021.69 1021.70 1021.94 1022.10 1022.20 1022.41 1022.64 1022.78 1022.73 1022.78 1022.64 1022.47 1022.45 1022.40 1022.32 1022.13 1021.76
1022.55 1023.27 1023.39 1023.42 1023.98 1023.92 1023.85 1023.92 1023.68 1023.44 1023.28 1023.17 1022.71 1022.48 1022.09 1022.00 1021.69 1021.46 1021.25 1021.04 1020.76 1020.62 1020.66 1020.85 1021.09 1021.35 1021.58 1021.69 1021.71 1021.91 1021.92 1021.73 1021.48 1021.45 1021.46 1021.42 1021.35 1021.17
1022.50 1022.80 1023.08 1023.40 1023.66 1023.67 1023.61 1023.47 1023.28 1023.13 1022.86 1022.56 1022.17 1021.73 1021.70 1021.14 1021.11 1020.88 1020.80 1020.52 1020.13 1019.76 1019.87 1020.05 1020.27 1020.30 1020.63 1020.72 1020.79 1020.98 1020.88 1020.64 1020.35 1020.26 1020.34 1020.43 1020.42 1020.26
1022.21 1022.64 1022.74 1023.05 1023.16 1023.22 1023.29 1022.96 1022.84 1022.67 1022.44 1022.06 1021.56 1021.37 1021.04 1020.80 1020.53 1020.01 1020.05 1019.65 1019.52 1019.45 1019.61 1019.83 1019.88 1019.94 1019.93 1019.90 1019.99 1019.96 1019.94 1019.90 1019.73 1019.59 1019.51 1019.39 1019.33 1019.31
1022.29 1022.55 1022.59 1022.67 1022.59 1022.42 1022.11 1021.96 1022.02 1022.02 1021.73 1021.53 1021.03 1020.74 1020.10 1019.94 1019.53 1019.26 1019.10 1019.25 1019.33 1019.03 1019.16 1019.36 1019.00 1019.12 1019.26 1019.20 1019.11 1019.18 1019.33 1019.22 1019.16 1019.04 1018.82 1018.60 1018.51 1018.44
1022.24 1022.36 1022.34 1022.17 1022.22 1022.54 1022.42 1022.14 1021.95 1021.65 1021.56 1021.39 1020.95 1020.22 1019.64 1019.10 1018.93 1018.67 1018.50 1018.18 1018.03 1017.98 1018.53 1018.90 1018.47 1018.58 1018.54 1018.17 1018.25 1018.46 1018.55 1018.54 1018.48 1018.39 1018.18 1017.91 1017.83 1017.59
1021.93 1022.19 1022.43 1022.64 1022.69 1022.58 1022.32 1022.11 1021.82 1021.43 1021.12 1020.90 1020.56 1019.80 1019.26 1018.73 1018.29 1017.72 1017.24 1016.95 1016.87 1017.13 1017.07 1017.80 1017.79 1017.80 1017.63 1017.67 1017.72 1017.85 1017.90 1017.97 1017.96 1017.77 1017.58 1017.31 1016.94 1016.57
1022.11 1022.23 1022.34 1022.46 1022.46 1022.33 1022.20 1022.03 1021.55 1020.99 1020.45 1019.95 1019.58 1019.07 1018.45 1017.78 1017.32 1017.06 1016.56 1016.50 1016.42 1016.26 1016.32 1016.32 1016.67 1017.03 1017.27 1017.37 1017.27 1017.20 1017.34 1017.41 1017.32 1017.11 1016.87 1016.52 1016.08 1015.59
1022.39 1022.27 1022.33 1022.45 1022.44 1022.40 1022.32 1022.14 1021.41 1020.60 1019.90 1019.00 1018.56 1018.05 1017.53 1016.90 1016.27 1016.01 1015.40 1015.36 1015.44 1015.93 1016.14 1016.47 1016.37 1016.81 1017.14 1016.98 1016.84 1016.99 1016.94 1016.86 1016.71 1016.49 1016.16 1015.75 1015.29 1014.86
1022.56 1022.59 1022.61 1022.46 1022.33 1022.11 1021.99 1021.87 1021.43 1020.51 1019.63 1019.14 1018.34 1017.52 1016.76 1016.11 1015.44 1014.96 1014.63 1014.51 1014.24 1014.70 1015.04 1015.70 1015.75 1016.24 1016.76 1017.09 1016.75 1016.73 1016.65 1016.44 1016.28 1015.93 1015.53 1015.08 1014.64 1014.26
1022.64 1022.68 1022.55 1022.32 1022.03 1021.80 1021.66 1021.45 1021.11 1020.62 1019.99 1019.18 1018.29 1017.45 1016.67 1015.72 1014.71 1014.11 1013.96 1013.66 1013.25 1013.25 1014.04 1014.84 1015.26 1015.59 1016.33 1016.73 1016.78 1016.41 1016.26 1015.95 1015.79 1015.46 1015.08 1014.58 1014.18 1013.66
1022.47 1022.56 1022.34 1021.99 1021.76 1021.71 1021.61 1021.36 1021.06 1020.71 1020.34 1019.71 1018.90 1017.98 1017.17 1016.06 1014.58 1013.49 1012.86 1012.83 1012.84 1013.06 1013.48 1014.01 1014.31 1014.86 1015.40 1015.89 1016.23 1016.02 1015.96 1015.53 1015.12 1015.12 1014.82 1014.62 1013.96 1013.38
1022.39 1022.39 1022.10 1021.74 1021.53 1021.59 1021.42 1021.20 1021.05 1020.88 1020.50 1019.81 1019.11 1018.29 1017.04 1015.76 1014.33 1012.83 1012.29 1012.18 1012.49 1012.67 1012.86 1013.42 1013.74 1014.22 1014.76 1015.14 1015.32 1015.49 1015.46 1015.56 1014.76 1014.65 1014.40 1014.00 1013.47 1013.24
1022.36 1022.30 1021.98 1021.60 1021.50 1021.47 1021.43 1021.36 1021.26 1020.90 1020.42 1019.86 1019.26 1018.33 1017.03 1015.76 1013.93 1012.24 1011.53 1011.36 1011.64 1011.97 1012.41 1012.99 1013.12 1013.49 1013.91 1014.22 1014.72 1014.74 1014.81 1014.78 1014.35 1014.19 1014.09 1013.83 1013.22 1012.95
1022.35 1022.43 1022.21 1022.06 1022.01 1021.89 1021.72 1021.59 1021.32 1020.91 1020.42 1019.76 1019.23 1018.59 1017.33 1015.71 1014.22 1011.69 1011.07 1011.05 1011.32 1011.92 1012.25 1012.59 1012.93 1013.33 1013.68 1013.65 1013.67 1014.03 1014.20 1014.22 1013.87 1013.78 1013.69 1013.56 1012.90 1012.65
1022.59 1022.63 1022.63 1022.51 1022.42 1022.29 1022.17 1021.90 1021.44 1021.16 1020.71 1020.12 1019.23 1018.58 1017.52 1016.10 1014.69 1012.87 1011.13 1011.05 1011.41 1011.78 1011.95 1012.28 1012.59 1013.15 1013.58 1013.72 1013.43 1013.21 1013.73 1013.80 1013.71 1013.58 1013.39 1013.11 1012.55 1012.16
1022.61 1022.79 1022.85 1022.82 1022.74 1022.63 1022.46 1022.17 1021.66 1021.20 1020.81 1020.30 1019.51 1018.50 1017.71 1016.59 1014.93 1013.54 1011.01 1010.61 1011.03 1011.38 1011.69 1011.88 1012.15 1012.52 1012.99 1013.47 1013.74 1013.35 1012.85 1013.14 1013.51 1013.42 1013.29 1012.63 1012.04 1011.83
1022.77 1022.84 1022.88 1022.98 1022.99 1022.85 1022.57 1022.19 1021.89 1021.31 1020.83 1020.37 1019.57 1018.62 1017.84 1016.84 1015.42 1014.00 1011.74 1010.53 1010.75 1010.96 1011.35 1011.50 1011.50 1011.74 1012.21 1012.70 1013.76 1013.64 1012.89 1012.41 1012.72 1013.02 1013.14 1012.91 1012.35 1012.10
1023.03 1023.01 1023.10 1023.18 1023.07 1022.81 1022.47 1022.06 1021.85 1021.33 1020.75 1020.20 1019.55 1018.93 1017.96 1017.12 1016.05 1014.73 1013.21 1010.89 1010.57 1010.65 1010.79 1011.02 1011.40 1011.73 1012.14 1012.64 1013.18 1013.64 1013.01 1012.43 1012.29 1012.51 1012.65 1012.85 1012.76 1012.49
1023.06 1023.13 1023.20 1023.16 1022.93 1022.68 1022.48 1022.05 1021.59 1021.21 1020.67 1020.18 1019.51 1018.88 1018.01 1017.10 1016.18 1015.16 1013.76 1012.24 1010.35 1010.41 1010.59 1010.82 1011.28 1011.56 1011.79 1012.16 1012.69 1013.11 1012.72 1012.52 1012.48 1012.50 1012.37 1012.19 1012.24 1012.16
Wind_Speed
5 5 3 3 1 3 2 2 4 3 3 4 3 4 4 3 7 9 7 18 19 17 16 17 17 16 14 14 16 17 19 19 20 21 22 23 24 22
3 2 3 2 3 4 3 3 3 3 5 4 5 5 5 4 7 9 10 17 20 19 19 19 17 15 14 16 17 17 19 19 19 19 20 22 22 21
7 5 5 4 3 3 4 4 4 3 9 5 4 5 4 6 4 6 8 8 9 17 17 16 13 14 16 16 17 18 20 20 20 20 19 19 21 22
6 6 3 2 5 5 4 6 4 5 5 13 4 4 7 7 6 6 8 9 9 15 16 14 15 15 16 15 18 19 20 21 21 21 20 19 20 22
8 5 2 1 5 4 4 5 5 7 6 7 12 4 6 4 7 5 6 7 6 14 16 15 12 11 12 17 20 18 20 21 22 21 21 21 22 23
5 4 2 1 4 6 6 7 7 6 7 7 10 10 6 8 5 6 7 5 7 6 9 9 11 11 13 13 11 15 17 21 22 22 19 20 20 22
3 4 2 4 10 13 9 9 7 7 7 9 10 8 6 4 6 7 6 7 5 5 4 4 4 3 4 6 9 13 16 11 10 13 16 18 18 18
4 4 3 7 11 14 16 16 12 11 10 8 10 10 13 7 8 8 8 6 7 3 4 4 4 4 4 4 10 14 11 11 12 14 17 19 19 20
4 4 6 5 7 6 8 10 8 10 9 7 10 11 12 11 7 9 7 9 11 4 5 6 4 4 4 5 12 13 8 9 8 8 11 13 17 21
3 3 3 4 2 6 7 8 9 9 9 8 9 11 11 12 12 13 15 13 8 7 6 10 4 5 3 4 11 7 8 5 10 13 15 17 19 20
4 4 5 5 8 14 9 11 13 12 12 18 19 22 23 23 20 10 10 8 7 6 7 5 4 3 3 3 4 6 3 7 10 14 17 18 20 21
4 4 8 7 12 13 9 9 13 13 13 15 14 14 14 15 21 13 9 11 7 2 4 3 2 3 2 3 3 2 2 9 14 16 19 20 19 8
2 3 3 10 14 17 16 7 10 15 16 12 12 11 11 10 9 9 10 8 7 6 5 5 4 3 3 2 1 2 3 4 4 8 14 17 17 15
1 2 3 15 16 15 11 14 16 11 8 10 9 10 10 11 9 9 9 11 10 12 6 6 3 4 3 1 2 2 3 4 4 5 6 10 13 16
2 8 14 15 15 9 10 15 9 6 8 8 10 12 10 12 16 11 10 11 11 8 7 10 4 4 3 3 3 3 1 3 3 2 3 2 4 6
4 5 7 8 6 2 5 6 6 7 7 9 9 11 12 11 13 9 8 6 6 6 7 6 6 5 3 3 4 3 3 2 3 3 3 3 4 3
3 2 2 2 5 5 5 6 6 7 8 8 10 12 13 11 14 10 8 7 7 5 6 6 5 6 5 5 3 4 5 3 4 3 1 3 3 3
1 2 3 3 3 6 5 6 5 7 8 10 9 11 12 12 15 8 1 1 3 3 4 3 3 2 1 3 9 4 2 3 2 3 2 2 4 3
2 2 2 2 2 5 6 7 8 8 10 9 9 10 11 13 14 14 5 4 3 3 2 3 3 3 2 3 3 5 3 3 1 2 2 4 5 3
2 1 1 2 3 5 5 6 7 7 8 9 10 9 11 11 13 15 7 5 6 4 3 2 3 3 5 6 4 4 9 3 2 2 3 3 3 2
2 3 2 2 3 4 3 3 3 6 6 8 9 10 10 11 13 12 12 6 5 4 5 6 5 5 3 4 4 4 4 10 6 3 2 3 2 1
2 2 2 2 3 3 3 2 5 6 7 8 9 9 10 10 11 13 13 5 4 4 5 3 3 4 2 3 3 3 3 2 3 5 6 6 2 1
1 1 1 2 3 3 4 4 5 5 6 8 8 9 9 11 11 11 12 12 4 5 5 5 3 2 3 3 4 2 2 1 2 3 3 9 8 6
Wind_Direction
190 188 176 199 123 72 45 75 186 258 265 280 253 245 259 225 211 190 186 202 208 208 211 217 230 246 269 273 277 286 296 303 305 303 299 295 294 298
165 150 100 57 64 43 16 282 250 211 271 213 249 235 247 245 216 194 200 204 210 209 210 217 229 245 255 256 264 272 286 293 296 298 299 294 295 296
111 132 83 34 14 335 277 257 255 269 269 265 232 246 245 242 243 212 208 207 210 207 211 215 226 230 236 240 249 258 271 282 286 287 289 289 290 293
138 95 144 61 347 271 254 260 253 244 245 275 243 250 234 230 225 209 220 216 208 217 212 214 219 222 230 232 241 248 259 269 274 274 275 277 280 284
129 163 216 59 259 267 276 274 260 269 258 259 276 244 258 240 248 235 228 226 222 216 211 213 232 235 224 230 241 251 257 264 268 266 264 263 268 274
165 169 160 283 283 287 280 269 272 268 261 261 268 272 249 251 233 240 245 247 233 224 213 185 199 212 228 241 242 250 261 267 271 265 258 257 258 265
175 173 171 265 299 280 283 279 265 262 260 265 266 263 260 260 232 247 235 245 248 203 197 225 211 212 222 247 258 273 282 283 283 274 268 263 260 262
177 207 236 259 271 275 276 263 251 263 268 267 275 271 277 261 264 243 242 243 250 237 194 246 183 202 229 229 250 266 246 250 258 268 272 270 260 264
193 242 269 276 294 347 346 347 342 327 282 274 280 282 283 280 260 264 253 247 244 217 176 227 185 223 223 246 261 245 257 279 273 284 296 280 267 272
236 285 353 358 360 14 356 339 327 319 314 304 291 292 293 297 282 268 263 257 255 225 174 227 182 221 214 239 249 247 279 279 283 288 288 286 282 282
54 26 22 356 17 2 353 329 319 309 301 299 299 298 294 293 288 288 264 245 242 233 211 179 191 199 198 212 224 246 280 299 297 299 293 292 289 287
8 11 1 358 348 343 328 316 308 305 311 310 302 292 284 284 287 270 262 252 217 215 218 188 168 132 329 234 174 208 297 298 291 293 293 295 289 292
14 339 322 332 329 323 321 302 291 306 306 302 301 298 294 289 290 274 250 228 221 221 187 171 198 144 164 238 267 219 251 269 268 287 288 290 289 298
360 293 298 326 324 324 326 324 347 327 322 317 309 309 301 292 283 281 243 235 226 232 162 180 224 159 165 198 241 277 267 264 256 270 286 285 300 310
359 333 326 324 323 325 339 348 342 337 330 323 323 316 311 303 295 274 265 233 222 212 215 204 167 169 162 182 220 238 263 273 256 243 280 276 299 314
338 314 297 294 291 315 344 346 342 336 329 324 322 314 307 305 302 275 263 248 207 203 198 195 197 166 170 208 197 239 221 235 284 258 265 269 304 287
292 296 294 340 6 353 344 346 340 334 333 330 324 321 315 309 305 282 259 237 206 173 184 209 200 191 199 200 201 227 259 259 250 260 294 295 284 279
349 305 329 8 4 346 344 337 336 333 333 327 328 321 318 313 319 279 333 127 160 175 176 179 154 89 41 265 208 233 243 232 252 266 279 278 275 249
33 354 18 9 331 351 341 337 335 336 329 330 321 325 319 319 325 314 231 180 169 160 175 166 147 148 190 216 278 195 181 232 266 312 246 271 267 231
355 19 1 342 351 343 335 331 330 328 331 329 322 322 328 326 323 324 241 178 195 180 170 176 174 183 182 205 206 250 216 203 168 272 298 301 281 314
27 12 357 345 333 320 291 296 296 321 322 325 320 327 326 330 327 320 305 180 159 171 192 200 212 198 135 85 33 309 287 227 182 171 273 295 301 353
7 351 348 336 310 298 291 311 321 316 328 321 325 323 320 325 322 323 324 285 180 188 203 166 143 147 131 153 203 224 274 279 198 205 234 234 205 298
318 5 320 300 288 292 338 310 306 309 314 316 314 314 322 323 318 314 315 322 222 184 185 166 173 188 184 174 182 227 229 226 187 233 271 243 244 249